Weather History for Pampa / Mesa Vista, TX

Change the Weather History Date:

Saturday, June 1, 2013

  Actual Average (KBGD) Record (KBGD)
Temperature  
Mean Temperature 68 °F 73 °F  
Max Temperature 82 °F 86 °F 103 °F (1998)
Min Temperature 55 °F 60 °F 46 °F (1983)
Degree Days  
Heating Degree Days 0 0  
Month to date heating degree days 0  
Since 1 June heating degree days 0  
Since 1 July heating degree days 3763  
Cooling Degree Days 4 8  
Month to date cooling degree days 8  
Year to date cooling degree days 205  
Since 1 June cooling degree days 8  
Growing Degree Days 18 (Base 50)    
Moisture  
Dew Point 40 °F    
Average Humidity 37    
Maximum Humidity 72    
Minimum Humidity 17    
Precipitation  
Precipitation 0.00 in 0.10 in 1.12 in (1991)
Month to date precipitation 0.10  
Year to date precipitation 7.15  
Snow  
Snow 0.00 in - T in (1952)
Month to date snowfall  
Since 1 June snowfall  
Since 1 July snowfall  
Snow Depth -    
Sea Level Pressure  
Sea Level Pressure 30.02 in    
Wind  
Wind Speed 13 mph (NNE)    
Max Wind Speed 25 mph    
Max Gust Speed 33 mph    
Visibility 10 miles    
Events      
T = Trace of Precipitation, MM = Missing Value Source: NWS Daily Summary

Daily Weather History Graph

Daily Weather History Graph

Search for Another Location

Airport:

Trip Planner

Search our weather history database for the weather conditions in past years. The results will help you decide how hot, cold, wet, or windy it might be!

Date:

Astronomy

Jun. 01, 2013 Rise Set
Actual Time 6:28 AM CDT 8:55 PM CDT
Civil Twilight 5:59 AM CDT 9:25 PM CDT
Nautical Twilight 5:22 AM CDT 10:01 PM CDT
Astronomical Twilight 4:42 AM CDT 10:42 PM CDT
Moon 2:13 AM CDT (6/1) 2:37 PM CDT (6/1)
Length of Visible Light 15h 25m
Length of Day
14h 26m
Last Quarter, 40% of the Moon is Illuminated
Jun 1
Last Quarter
Jun 8
New
Jun 16
First Quarter
Jun 23
Full
Jun 29
Last Quarter

Hourly Weather History & Observations

Time (CDT) Temp. Dew Point Humidity Pressure Visibility Wind Dir Wind Speed Gust Speed Precip Events Conditions
12:15 AM 69.8 °F 41.0 °F 35% 29.85 in 10.0 mi ENE 15.0 mph 20.7 mph N/A   Clear
12:35 AM 69.8 °F 41.0 °F 35% 29.85 in 10.0 mi ENE 11.5 mph 20.7 mph N/A   Clear
12:55 AM 69.8 °F 42.8 °F 38% 29.86 in 10.0 mi ENE 10.4 mph - N/A   Scattered Clouds
1:15 AM 68.0 °F 44.6 °F 43% 29.86 in 10.0 mi ENE 9.2 mph - N/A   Scattered Clouds
1:35 AM 66.2 °F 46.4 °F 49% 29.86 in 10.0 mi ENE 8.1 mph - N/A   Clear
1:55 AM 64.4 °F 46.4 °F 52% 29.84 in 10.0 mi East 9.2 mph - N/A   Clear
2:15 AM 66.2 °F 50.0 °F 56% 29.84 in 10.0 mi ESE 9.2 mph - N/A   Mostly Cloudy
2:35 AM 68.0 °F 50.0 °F 52% 29.84 in 10.0 mi ESE 6.9 mph - N/A   Mostly Cloudy
2:55 AM 64.4 °F 50.0 °F 59% 29.84 in 10.0 mi ENE 3.5 mph - N/A   Scattered Clouds
3:15 AM 62.6 °F 50.0 °F 63% 29.86 in 10.0 mi NW 6.9 mph - N/A   Clear
3:35 AM 62.6 °F 50.0 °F 63% 29.86 in 10.0 mi NNW 6.9 mph - N/A   Clear
3:55 AM 60.8 °F 50.0 °F 68% 29.87 in 10.0 mi North 6.9 mph - N/A   Clear
4:15 AM 60.8 °F 50.0 °F 68% 29.88 in 10.0 mi North 6.9 mph - N/A   Clear
4:35 AM 59.0 °F 50.0 °F 72% 29.90 in 10.0 mi North 8.1 mph - N/A   Clear
4:55 AM 60.8 °F 46.4 °F 59% 29.92 in 10.0 mi North 12.7 mph 17.3 mph N/A   Clear
5:15 AM 60.8 °F 44.6 °F 55% 29.94 in 10.0 mi NNE 17.3 mph 21.9 mph N/A   Clear
5:35 AM 60.8 °F 42.8 °F 52% 29.95 in 10.0 mi NNE 17.3 mph 20.7 mph N/A   Clear
5:55 AM 59.0 °F 42.8 °F 55% 29.96 in 10.0 mi NNE 16.1 mph 20.7 mph N/A   Clear
6:15 AM 57.2 °F 41.0 °F 55% 29.98 in 10.0 mi NNE 15.0 mph 20.7 mph N/A   Clear
6:35 AM 57.2 °F 41.0 °F 55% 29.99 in 10.0 mi NNE 15.0 mph 19.6 mph N/A   Clear
6:55 AM 55.4 °F 41.0 °F 58% 30.01 in 10.0 mi NNE 15.0 mph 19.6 mph N/A   Clear
7:15 AM 55.4 °F 41.0 °F 58% 30.03 in 10.0 mi NNE 11.5 mph - N/A   Clear
7:35 AM 57.2 °F 41.0 °F 55% 30.03 in 10.0 mi North 10.4 mph 16.1 mph N/A   Clear
7:55 AM 59.0 °F 41.0 °F 51% 30.05 in 10.0 mi North 11.5 mph - N/A   Clear
8:15 AM 59.0 °F 41.0 °F 51% 30.05 in 10.0 mi NNE 11.5 mph 17.3 mph N/A   Clear
8:35 AM 60.8 °F 41.0 °F 48% 30.06 in 10.0 mi North 15.0 mph 23.0 mph N/A   Clear
8:55 AM 60.8 °F 41.0 °F 48% 30.07 in 10.0 mi NNE 19.6 mph 24.2 mph N/A   Clear
9:15 AM 62.6 °F 41.0 °F 45% 30.08 in 10.0 mi NNE 20.7 mph 27.6 mph N/A   Clear
9:35 AM 64.4 °F 41.0 °F 42% 30.09 in 10.0 mi North 20.7 mph 24.2 mph N/A   Clear
9:55 AM 66.2 °F 39.2 °F 37% 30.10 in 10.0 mi North 18.4 mph 24.2 mph N/A   Clear
10:15 AM 68.0 °F 39.2 °F 35% 30.10 in 10.0 mi North 20.7 mph 26.5 mph N/A   Clear
10:35 AM 68.0 °F 37.4 °F 33% 30.09 in 10.0 mi NNW 24.2 mph 31.1 mph N/A   Clear
10:55 AM 69.8 °F 37.4 °F 31% 30.09 in 10.0 mi North 25.3 mph 29.9 mph N/A   Clear
11:15 AM 71.6 °F 37.4 °F 29% 30.09 in 10.0 mi North 25.3 mph 31.1 mph N/A   Clear
11:35 AM 71.6 °F 37.4 °F 29% 30.09 in 10.0 mi North 20.7 mph 29.9 mph N/A   Clear
11:55 AM 73.4 °F 35.6 °F 25% 30.09 in 10.0 mi North 20.7 mph 33.4 mph N/A   Clear
12:15 PM 75.2 °F 37.4 °F 25% 30.09 in 10.0 mi North 18.4 mph 26.5 mph N/A   Clear
12:35 PM 75.2 °F 37.4 °F 25% 30.09 in 10.0 mi North 18.4 mph 23.0 mph N/A   Clear
12:55 PM 77.0 °F 35.6 °F 22% 30.09 in 10.0 mi North 18.4 mph 25.3 mph N/A   Clear
1:15 PM 77.0 °F 35.6 °F 22% 30.09 in 10.0 mi North 16.1 mph 26.5 mph N/A   Clear
1:35 PM 78.8 °F 35.6 °F 21% 30.08 in 10.0 mi North 17.3 mph 28.8 mph N/A   Clear
1:55 PM 78.8 °F 35.6 °F 21% 30.08 in 10.0 mi North 16.1 mph 29.9 mph N/A   Clear
2:15 PM 78.8 °F 35.6 °F 21% 30.07 in 10.0 mi North 15.0 mph 24.2 mph N/A   Clear
2:35 PM 80.6 °F 35.6 °F 20% 30.06 in 10.0 mi North 15.0 mph 25.3 mph N/A   Clear
2:55 PM 80.6 °F 33.8 °F 18% 30.06 in 10.0 mi North 13.8 mph 21.9 mph N/A   Clear
3:15 PM 80.6 °F 33.8 °F 18% 30.05 in 10.0 mi North 15.0 mph 24.2 mph N/A   Clear
3:35 PM 80.6 °F 33.8 °F 18% 30.05 in 10.0 mi NW 12.7 mph 28.8 mph N/A   Clear
3:55 PM 80.6 °F 33.8 °F 18% 30.05 in 10.0 mi NNW 23.0 mph 32.2 mph N/A   Clear
4:15 PM 80.6 °F 32.0 °F 17% 30.05 in 10.0 mi North 15.0 mph 24.2 mph N/A   Clear
4:35 PM 82.4 °F 33.8 °F 17% 30.05 in 10.0 mi North 10.4 mph 26.5 mph N/A   Clear
4:55 PM 82.4 °F 33.8 °F 17% 30.05 in 10.0 mi NNW 18.4 mph 21.9 mph N/A   Clear
5:15 PM 82.4 °F 35.6 °F 19% 30.05 in 10.0 mi North 17.3 mph 26.5 mph N/A   Clear
5:35 PM 80.6 °F 35.6 °F 20% 30.05 in 10.0 mi North 15.0 mph 26.5 mph N/A   Scattered Clouds
5:55 PM 80.6 °F 35.6 °F 20% 30.05 in 10.0 mi North 17.3 mph 20.7 mph N/A   Scattered Clouds
6:15 PM 80.6 °F 35.6 °F 20% 30.05 in 10.0 mi North 17.3 mph 21.9 mph N/A   Clear
6:35 PM 80.6 °F 35.6 °F 20% 30.05 in 10.0 mi North 12.7 mph 21.9 mph N/A   Clear
6:55 PM 78.8 °F 37.4 °F 23% 30.05 in 10.0 mi North 17.3 mph 21.9 mph N/A   Clear
7:15 PM 78.8 °F 35.6 °F 21% 30.05 in 10.0 mi NNW 16.1 mph 25.3 mph N/A   Clear
7:35 PM 78.8 °F 35.6 °F 21% 30.06 in 10.0 mi NNW 11.5 mph - N/A   Clear
7:55 PM 77.0 °F 35.6 °F 22% 30.06 in 10.0 mi North 17.3 mph - N/A   Clear
8:15 PM 77.0 °F 37.4 °F 24% 30.07 in 10.0 mi North 12.7 mph 20.7 mph N/A   Clear
8:35 PM 73.4 °F 37.4 °F 27% 30.08 in 10.0 mi North 11.5 mph - N/A   Clear
8:55 PM 71.6 °F 37.4 °F 29% 30.08 in 10.0 mi North 10.4 mph - N/A   Clear
9:15 PM 69.8 °F 37.4 °F 31% 30.09 in 10.0 mi North 8.1 mph - N/A   Clear
9:35 PM 68.0 °F 37.4 °F 33% 30.10 in 10.0 mi NNE 6.9 mph - N/A   Clear
9:55 PM 66.2 °F 37.4 °F 35% 30.10 in 10.0 mi North 8.1 mph - N/A   Clear
10:15 PM 64.4 °F 39.2 °F 40% 30.11 in 10.0 mi NNE 5.8 mph - N/A   Clear
10:35 PM 64.4 °F 41.0 °F 42% 30.12 in 10.0 mi NNE 5.8 mph - N/A   Clear
10:55 PM 62.6 °F 41.0 °F 45% 30.12 in 10.0 mi NNE 10.4 mph - N/A   Clear
11:15 PM 64.4 °F 41.0 °F 42% 30.13 in 10.0 mi NE 5.8 mph - N/A   Clear
11:35 PM 60.8 °F 41.0 °F 48% 30.14 in 10.0 mi East 4.6 mph - N/A   Clear
11:55 PM 60.8 °F 41.0 °F 48% 30.14 in 10.0 mi East 3.5 mph - N/A   Clear